OKEAN-0
1 25860U 99039A 12110.48085732 .00000454 00000-0 76309-4 0 6048
2 25860 097.9300 074.3478 0001934 071.8426 288.2993 14.74153351685924
NOAA-16
1 26536U 00055A 12110.82020416 .00000090 00000-0 48747-4 0 7148
2 26536 099.1006 152.0265 0009868 246.7991 113.2624 14.12724926596792
NOAA-17
1 27453U 02032A 12110.86096082 .00000210 00000-0 90694-4 0 6758
2 27453 098.3416 140.8333 0011282 332.4343 027.6724 14.24417887510451
NOAA-18
1 28654U 05018A 12110.87456459 .00000118 00000-0 64724-4 0 1508
2 28654 099.0411 068.4959 0014074 322.4032 037.6624 14.11633952356337
NOAA-19
1 33591U 09005A 12110.86936953 .00000346 00000-0 19115-3 0 3424
2 33591 098.8606 051.3928 0013812 182.8822 177.2744 14.11324014164783
HUBBLE
1 20580U 90037B 12110.27074257 .00001525 00000-0 10000-3 0 9855
2 20580 028.4694 169.0681 0003597 152.7600 207.3227 15.02383503 5868
ISS
1 25544U 98067A 12110.91545190 .00014820 00000-0 19649-3 0 4058
2 25544 051.6451 053.9680 0008016 296.6509 170.7543 15.58471699768932
CO-58
1 28895U 05043F 12109.62011386 .00000485 00000-0 10878-3 0 01541
2 28895 097.9242 338.4866 0016995 342.5695 017.4929 14.60563486344960
FALCON
1 30776U 07006E 12110.57115020 .00003310 00000-0 21865-3 0 3279
2 30776 035.4335 274.7551 0001766 265.1735 094.8810 15.07102837281407
MAST
1 31126U 07012K 12109.97695035 .00000539 00000-0 13089-3 0 04413
2 31126 097.8765 124.5394 0093040 295.7252 063.4365 14.54106369265664
CAPE1
1 31130U 07012P 12109.75632775 .00000516 00000-0 12807-3 0 4474
2 31130 097.8860 120.7508 0100747 309.3681 049.8584 14.52866836265145
COMPASS
1 32787U 08021E 12110.33628089 .00001888 00000-0 23411-3 0 2804
2 32787 097.8057 172.9672 0014293 251.5833 108.3880 14.83755217215082
AAUSAT2
1 32788U 08021F 12110.11605791 .00001318 00000-0 16431-3 0 2707
2 32788 097.8071 173.1015 0013713 251.4872 108.4921 14.84053242215077
DO-64
1 32789U 08021G 12109.88288917 .00003324 00000-0 39180-3 0 02892
2 32789 097.8183 174.6788 0013632 249.4050 110.5709 14.85370847215072
CO-66
1 32791U 08021J 12109.22412501 .00001512 00000-0 19122-3 0 2713
2 32791 097.8063 171.6673 0014561 255.6178 104.3377 14.83214479214857
RS-30
1 32953U 08025A 12110.61402917 .00000010 00000-0 00000 0 0 7125
2 32953 082.5038 331.5715 0019781 075.7725 284.5549 12.43022442177280
TACSAT-3
1 35001U 09028A 12110.82554509 .00502840 00000-0 88804-3 0 9609
2 35001 040.4429 064.5758 0017231 200.0432 160.0195 16.00603037165239
PHARMSAT
1 35002U 09028B 12110.93843261 .00080186 00000-0 56155-3 0 8694
2 35002 040.4619 077.2554 0001817 174.4666 185.6710 15.73181182165116
METEOR-M
1 35865U 09049A 12110.60130959 -.00000011 00000-0 14802-4 0 3375
2 35865 098.6601 166.0087 0001876 205.8840 154.2259 14.21859647134278
RS-38
1 35869U 09049E 12110.34956326 .00000012 00000-0 25232-4 0 3474
2 35869 098.6558 165.7666 0003982 215.0228 145.0689 14.22063972134257
JUGNU
1 37839U 11058B 12109.81133472 .00000619 00000-0 19019-3 0 01314
2 37839 019.9636 357.9427 0018458 289.9100 069.9300 14.12044095026845
SRMSAT
1 37841U 11058D 12109.78512292 .00000264 00000-0 00000-0 0 01339
2 37841 019.9733 001.7972 0012353 257.3221 102.5816 14.10130080026806
RAX-2
1 37853U 11061D 12109.95542874 .00003229 00000-0 26525-3 0 01566
2 37853 101.7184 123.1968 0249434 159.7151 201.4175 14.79382369025644
AUBIESAT
1 37854U 11061E 12110.60084803 .00003612 00000-0 29040-3 0 1565
2 37854 101.7197 124.3110 0251021 157.2262 204.0306 14.79729977 25726
HRBE
1 37855U 11061F 12109.93304715 .00003194 00000-0 25850-3 0 01747
2 37855 101.7201 123.3096 0251474 159.2361 201.9280 14.79603764025620
RS-39
1 38051U 11062C 12110.56321920 .00006415 00000-0 28062-3 0 2619
2 38051 051.6333 079.0054 0010382 183.3845 289.7609 15.23241680 13031
E-STAR
1 38079U 12006C 12110.34839672 .00059769 00000-0 14597-2 0 1584
2 38079 069.4938 089.8112 0762642 321.8892 033.0634 14.10892566 9276
GOLIAT
1 38085U 12006J 12110.37263967 .00052650 00000-0 13439-2 0 1566
2 38085 069.4903 089.8552 0762068 321.9103 033.0547 14.10132075 9276
